Wetterdaten: Freitag, 03.06.2005
Datum Zeit Temp. A Sch. Temp. A Son. Feuchte A. Luftdruck Regen Wind Richtung Richtung Sonnenschein Helligkeit Taupunkt Windchill
03.06.2005 00:00 12,8 C 13,6 C 90 % 1015 hPa 0,0 l/m 0,0 m/s (0 Bft) NO 50 0,00 min 0 lux 11,2 C 12,8 C
03.06.2005 00:05 12,8 C 13,5 C 90 % 1015 hPa 0,0 l/m 0,0 m/s (0 Bft) NO 50 0,00 min 0 lux 11,2 C 12,8 C
03.06.2005 00:10 12,8 C 13,5 C 90 % 1016 hPa 0,0 l/m 0,0 m/s (0 Bft) NO 50 0,00 min 0 lux 11,2 C 12,8 C
03.06.2005 00:15 12,7 C 13,4 C 91 % 1015 hPa 0,0 l/m 0,0 m/s (0 Bft) NO 50 0,00 min 0 lux 11,3 C 12,7 C
03.06.2005 00:20 12,7 C 13,3 C 91 % 1015 hPa 0,0 l/m 0,0 m/s (0 Bft) NO 50 0,00 min 0 lux 11,3 C 12,7 C
03.06.2005 00:25 12,7 C 13,3 C 91 % 1015 hPa 0,0 l/m 0,0 m/s (0 Bft) NO 50 0,00 min 0 lux 11,3 C 12,7 C
03.06.2005 00:30 12,6 C 13,2 C 91 % 1015 hPa 0,0 l/m 0,0 m/s (0 Bft) NO 50 0,00 min 0 lux 11,2 C 12,6 C
03.06.2005 00:35 12,4 C 13,1 C 92 % 1015 hPa 0,0 l/m 0,0 m/s (0 Bft) NO 50 0,00 min 0 lux 11,1 C 12,4 C
03.06.2005 00:40 12,6 C 13,1 C 92 % 1015 hPa 0,0 l/m 0,0 m/s (0 Bft) NO 50 0,00 min 0 lux 11,3 C 12,6 C
03.06.2005 00:45 12,5 C 13,0 C 92 % 1015 hPa 0,0 l/m 0,0 m/s (0 Bft) NO 50 0,00 min 0 lux 11,2 C 12,5 C
03.06.2005 00:50 12,3 C 12,9 C 92 % 1015 hPa 0,0 l/m 0,0 m/s (0 Bft) NO 50 0,00 min 0 lux 11,0 C 12,3 C
03.06.2005 00:55 12,1 C 12,8 C 92 % 1015 hPa 0,0 l/m 0,0 m/s (0 Bft) NO 50 0,00 min 0 lux 10,8 C 12,1 C
03.06.2005 01:00 12,1 C 12,8 C 92 % 1015 hPa 0,0 l/m 0,0 m/s (0 Bft) NO 50 0,00 min 0 lux 10,8 C 12,1 C
03.06.2005 01:05 12,0 C 12,7 C 92 % 1015 hPa 0,0 l/m 0,0 m/s (0 Bft) NO 50 0,00 min 0 lux 10,7 C 12,0 C
03.06.2005 01:10 11,9 C 12,7 C 92 % 1015 hPa 0,0 l/m 0,0 m/s (0 Bft) NO 50 0,00 min 0 lux 10,6 C 11,9 C
03.06.2005 01:15 11,9 C 12,7 C 93 % 1015 hPa 0,0 l/m 0,0 m/s (0 Bft) NO 50 0,00 min 0 lux 10,8 C 11,9 C
03.06.2005 01:20 11,8 C 12,6 C 93 % 1015 hPa 0,0 l/m 0,0 m/s (0 Bft) NO 50 0,00 min 0 lux 10,7 C 11,8 C
03.06.2005 01:25 11,8 C 12,5 C 93 % 1015 hPa 0,0 l/m 0,0 m/s (0 Bft) NO 50 0,00 min 0 lux 10,7 C 11,8 C
03.06.2005 01:30 11,8 C 12,4 C 93 % 1015 hPa 0,0 l/m 0,0 m/s (0 Bft) NO 50 0,00 min 0 lux 10,7 C 11,8 C
03.06.2005 01:35 11,6 C 12,4 C 93 % 1015 hPa 0,0 l/m 0,0 m/s (0 Bft) NO 50 0,00 min 0 lux 10,5 C 11,6 C
03.06.2005 01:40 11,5 C 12,3 C 93 % 1015 hPa 0,0 l/m 0,0 m/s (0 Bft) NO 50 0,00 min 0 lux 10,4 C 11,5 C
03.06.2005 01:45 11,5 C 12,2 C 93 % 1015 hPa 0,0 l/m 0,0 m/s (0 Bft) NO 50 0,00 min 0 lux 10,4 C 11,5 C
03.06.2005 01:50 11,3 C 12,2 C 93 % 1015 hPa 0,0 l/m 0,0 m/s (0 Bft) NO 50 0,00 min 0 lux 10,2 C 11,3 C
03.06.2005 01:55 11,2 C 12,1 C 93 % 1015 hPa 0,0 l/m 0,0 m/s (0 Bft) NO 50 0,00 min 0 lux 10,1 C 11,2 C
03.06.2005 02:00 11,2 C 12,0 C 93 % 1015 hPa 0,0 l/m 0,0 m/s (0 Bft) NO 50 0,00 min 0 lux 10,1 C 11,2 C
03.06.2005 02:05 11,2 C 11,9 C 93 % 1015 hPa 0,0 l/m 0,0 m/s (0 Bft) NO 50 0,00 min 0 lux 10,1 C 11,2 C
03.06.2005 02:10 11,0 C 11,8 C 93 % 1015 hPa 0,0 l/m 0,0 m/s (0 Bft) NO 50 0,00 min 0 lux 9,9 C 11,0 C
03.06.2005 02:15 11,0 C 11,7 C 93 % 1015 hPa 0,0 l/m 0,0 m/s (0 Bft) NO 50 0,00 min 0 lux 9,9 C 11,0 C
03.06.2005 02:20 10,9 C 11,6 C 93 % 1015 hPa 0,0 l/m 0,0 m/s (0 Bft) NO 50 0,00 min 0 lux 9,8 C 10,9 C
03.06.2005 02:25 10,9 C 11,6 C 93 % 1015 hPa 0,0 l/m 0,0 m/s (0 Bft) NO 50 0,00 min 0 lux 9,8 C 10,9 C
03.06.2005 02:30 10,9 C 11,5 C 93 % 1015 hPa 0,0 l/m 0,0 m/s (0 Bft) NO 50 0,00 min 0 lux 9,8 C 10,9 C
03.06.2005 02:35 10,8 C 11,4 C 93 % 1015 hPa 0,0 l/m 0,0 m/s (0 Bft) NO 50 0,00 min 0 lux 9,7 C 10,8 C
03.06.2005 02:40 10,7 C 11,4 C 93 % 1015 hPa 0,0 l/m 0,0 m/s (0 Bft) NO 50 0,00 min 0 lux 9,6 C 10,7 C
03.06.2005 02:45 10,6 C 11,3 C 93 % 1015 hPa 0,0 l/m 0,0 m/s (0 Bft) NO 50 0,00 min 0 lux 9,5 C 10,6 C
03.06.2005 02:50 10,5 C 11,2 C 93 % 1015 hPa 0,0 l/m 0,0 m/s (0 Bft) NO 50 0,00 min 0 lux 9,4 C 10,5 C
03.06.2005 02:55 10,4 C 11,2 C 93 % 1015 hPa 0,0 l/m 0,0 m/s (0 Bft) NO 50 0,00 min 0 lux 9,3 C 10,4 C
03.06.2005 03:00 10,5 C 11,1 C 93 % 1015 hPa 0,0 l/m 0,0 m/s (0 Bft) NO 50 0,00 min 0 lux 9,4 C 10,5 C
03.06.2005 03:05 10,4 C 11,1 C 93 % 1015 hPa 0,0 l/m 0,0 m/s (0 Bft) NO 50 0,00 min 0 lux 9,3 C 10,4 C
03.06.2005 03:10 10,4 C 11,0 C 93 % 1015 hPa 0,0 l/m 0,0 m/s (0 Bft) NO 50 0,00 min 0 lux 9,3 C 10,4 C
03.06.2005 03:15 10,3 C 11,0 C 93 % 1015 hPa 0,0 l/m 0,0 m/s (0 Bft) NO 50 0,00 min 0 lux 9,2 C 10,3 C
03.06.2005 03:20 10,4 C 11,0 C 93 % 1015 hPa 0,0 l/m 0,0 m/s (0 Bft) NO 50 0,00 min 0 lux 9,3 C 10,4 C
03.06.2005 03:25 10,4 C 11,0 C 93 % 1015 hPa 0,0 l/m 0,0 m/s (0 Bft) NO 50 0,00 min 0 lux 9,3 C 10,4 C
03.06.2005 03:30 10,6 C 11,1 C 94 % 1015 hPa 0,0 l/m 0,0 m/s (0 Bft) NO 50 0,00 min 0 lux 9,7 C 10,6 C
03.06.2005 03:35 10,6 C 11,1 C 94 % 1015 hPa 0,0 l/m 0,0 m/s (0 Bft) NO 50 0,00 min 0 lux 9,7 C 10,6 C
03.06.2005 03:40 10,7 C 11,1 C 94 % 1015 hPa 0,0 l/m 0,0 m/s (0 Bft) NO 50 0,00 min 0 lux 9,8 C 10,7 C
03.06.2005 03:45 10,6 C 11,1 C 94 % 1015 hPa 0,0 l/m 0,0 m/s (0 Bft) NO 50 0,00 min 0 lux 9,7 C 10,6 C
03.06.2005 03:50 10,7 C 11,1 C 94 % 1015 hPa 0,0 l/m 0,0 m/s (0 Bft) NO 50 0,00 min 0 lux 9,8 C 10,7 C
03.06.2005 03:55 10,6 C 11,1 C 94 % 1015 hPa 0,0 l/m 0,0 m/s (0 Bft) NO 50 0,00 min 0 lux 9,7 C 10,6 C
03.06.2005 04:00 10,6 C 11,1 C 94 % 1015 hPa 0,0 l/m 0,0 m/s (0 Bft) NO 50 0,00 min 0 lux 9,7 C 10,6 C
03.06.2005 04:05 10,5 C 11,1 C 94 % 1015 hPa 0,0 l/m 0,0 m/s (0 Bft) NO 50 0,00 min 0 lux 9,6 C 10,5 C
03.06.2005 04:10 10,4 C 11,1 C 94 % 1015 hPa 0,0 l/m 0,0 m/s (0 Bft) NO 50 0,00 min 0 lux 9,5 C 10,4 C
03.06.2005 04:15 10,3 C 11,0 C 94 % 1015 hPa 0,0 l/m 0,0 m/s (0 Bft) NO 50 0,00 min 0 lux 9,4 C 10,3 C
03.06.2005 04:20 10,2 C 11,1 C 94 % 1015 hPa 0,0 l/m 0,0 m/s (0 Bft) NO 50 0,00 min 0 lux 9,3 C 10,2 C
03.06.2005 04:25 10,2 C 11,0 C 94 % 1015 hPa 0,0 l/m 0,0 m/s (0 Bft) NO 50 0,00 min 0 lux 9,3 C 10,2 C
03.06.2005 04:30 10,2 C 11,0 C 94 % 1015 hPa 0,0 l/m 0,0 m/s (0 Bft) NO 50 0,00 min 0 lux 9,3 C 10,2 C
03.06.2005 04:35 10,2 C 11,0 C 94 % 1015 hPa 0,0 l/m 0,0 m/s (0 Bft) NO 50 0,00 min 0 lux 9,3 C 10,2 C
03.06.2005 04:40 10,3 C 11,0 C 94 % 1015 hPa 0,0 l/m 0,0 m/s (0 Bft) NO 50 0,00 min 0 lux 9,4 C 10,3 C
03.06.2005 04:45 10,4 C 11,0 C 94 % 1015 hPa 0,0 l/m 0,0 m/s (0 Bft) NO 50 0,00 min 0 lux 9,5 C 10,4 C
03.06.2005 04:50 10,4 C 11,0 C 94 % 1015 hPa 0,0 l/m 0,0 m/s (0 Bft) NO 50 0,00 min 0 lux 9,5 C 10,4 C
03.06.2005 04:55 10,4 C 11,0 C 94 % 1015 hPa 0,0 l/m 0,0 m/s (0 Bft) NO 50 0,00 min 0 lux 9,5 C 10,4 C
03.06.2005 05:00 10,5 C 11,0 C 95 % 1015 hPa 0,0 l/m 0,0 m/s (0 Bft) NO 50 0,00 min 42 lux 9,7 C 10,5 C
03.06.2005 05:05 10,5 C 11,1 C 95 % 1015 hPa 0,0 l/m 0,0 m/s (0 Bft) NO 50 0,00 min 72 lux 9,7 C 10,5 C
03.06.2005 05:10 10,6 C 11,1 C 95 % 1015 hPa 0,0 l/m 0,0 m/s (0 Bft) NO 50 0,00 min 112 lux 9,8 C 10,6 C
03.06.2005 05:15 10,5 C 11,1 C 95 % 1015 hPa 0,0 l/m 0,0 m/s (0 Bft) NO 50 0,00 min 187 lux 9,7 C 10,5 C
03.06.2005 05:20 10,5 C 11,1 C 95 % 1015 hPa 0,0 l/m 0,0 m/s (0 Bft) NO 50 0,00 min 306 lux 9,7 C 10,5 C
03.06.2005 05:25 10,5 C 11,1 C 95 % 1014 hPa 0,0 l/m 0,0 m/s (0 Bft) NO 50 0,00 min 522 lux 9,7 C 10,5 C
03.06.2005 05:30 10,5 C 11,1 C 95 % 1014 hPa 0,0 l/m 0,0 m/s (0 Bft) NO 50 0,00 min 741 lux 9,7 C 10,5 C
03.06.2005 05:35 10,5 C 11,1 C 95 % 1014 hPa 0,0 l/m 0,0 m/s (0 Bft) NO 50 0,00 min 948 lux 9,7 C 10,5 C
03.06.2005 05:40 10,4 C 11,1 C 95 % 1014 hPa 0,0 l/m 0,0 m/s (0 Bft) NO 50 0,00 min 1,19 klux 9,6 C 10,4 C
03.06.2005 05:45 10,5 C 11,1 C 95 % 1015 hPa 0,0 l/m 0,0 m/s (0 Bft) NO 50 0,00 min 1,36 klux 9,7 C 10,5 C
03.06.2005 05:50 10,5 C 11,1 C 95 % 1015 hPa 0,0 l/m 0,0 m/s (0 Bft) NO 50 0,00 min 1,66 klux 9,7 C 10,5 C
03.06.2005 05:55 10,5 C 11,1 C 95 % 1015 hPa 0,0 l/m 0,0 m/s (0 Bft) NO 50 0,00 min 1,99 klux 9,7 C 10,5 C
03.06.2005 06:00 10,6 C 11,2 C 95 % 1014 hPa 0,0 l/m 0,0 m/s (0 Bft) NO 50 0,00 min 2,92 klux 9,8 C 10,6 C
03.06.2005 06:05 10,7 C 11,2 C 95 % 1014 hPa 0,0 l/m 0,0 m/s (0 Bft) NO 50 0,00 min 3,43 klux 9,9 C 10,7 C
03.06.2005 06:10 10,6 C 11,3 C 95 % 1014 hPa 0,0 l/m 0,0 m/s (0 Bft) NO 50 0,00 min 3,70 klux 9,8 C 10,6 C
03.06.2005 06:15 10,5 C 11,3 C 95 % 1014 hPa 0,0 l/m 0,0 m/s (0 Bft) O-NO22.5 60 0,00 min 3,83 klux 9,7 C 10,5 C
03.06.2005 06:20 10,6 C 11,3 C 95 % 1014 hPa 0,0 l/m 0,0 m/s (0 Bft) O 80 0,00 min 5,68 klux 9,8 C 10,6 C
03.06.2005 06:25 10,7 C 11,4 C 95 % 1014 hPa 0,0 l/m 0,0 m/s (0 Bft) O 80 0,00 min 6,90 klux 9,9 C 10,7 C
03.06.2005 06:30 10,9 C 11,5 C 95 % 1014 hPa 0,0 l/m 0,0 m/s (0 Bft) O 80 0,00 min 7,67 klux 10,1 C 10,9 C
03.06.2005 06:35 11,0 C 11,5 C 94 % 1014 hPa 0,0 l/m 0,0 m/s (0 Bft) O 80 0,00 min 7,96 klux 10,1 C 11,0 C
03.06.2005 06:40 11,0 C 11,5 C 94 % 1014 hPa 0,0 l/m 0,0 m/s (0 Bft) O 80 0,00 min 9,5 klux 10,1 C 11,0 C
03.06.2005 06:45 11,4 C 11,6 C 94 % 1014 hPa 0,0 l/m 0,0 m/s (0 Bft) O 80 0,00 min 12,0 klux 10,5 C 11,4 C
03.06.2005 06:50 11,5 C 11,6 C 94 % 1014 hPa 0,0 l/m 0,0 m/s (0 Bft) O 80 0,00 min 11,0 klux 10,6 C 11,5 C
03.06.2005 06:55 11,4 C 11,6 C 93 % 1014 hPa 0,0 l/m 0,0 m/s (0 Bft) O 80 0,00 min 10,7 klux 10,3 C 11,4 C
03.06.2005 07:00 11,6 C 11,6 C 93 % 1014 hPa 0,0 l/m 0,0 m/s (0 Bft) O 80 0,00 min 11,3 klux 10,5 C 11,6 C
03.06.2005 07:05 11,7 C 11,6 C 92 % 1014 hPa 0,0 l/m 0,0 m/s (0 Bft) O 80 0,00 min 11,6 klux 10,4 C 11,7 C
03.06.2005 07:10 11,8 C 11,6 C 92 % 1014 hPa 0,0 l/m 0,0 m/s (0 Bft) O 80 0,00 min 12,9 klux 10,5 C 11,8 C
03.06.2005 07:15 11,8 C 11,7 C 91 % 1014 hPa 0,0 l/m 0,0 m/s (0 Bft) O 80 0,00 min 16,8 klux 10,4 C 11,8 C
03.06.2005 07:20 11,9 C 11,7 C 91 % 1014 hPa 0,0 l/m 0,0 m/s (0 Bft) O 80 0,00 min 19,0 klux 10,5 C 11,9 C
03.06.2005 07:25 12,1 C 11,8 C 88 % 1014 hPa 0,0 l/m 0,0 m/s (0 Bft) O 80 0,00 min 21,6 klux 10,2 C 12,1 C
03.06.2005 07:30 12,4 C 11,9 C 88 % 1014 hPa 0,0 l/m 0,0 m/s (0 Bft) O 80 0,00 min 20,5 klux 10,5 C 12,4 C
03.06.2005 07:35 13,0 C 12,0 C 85 % 1014 hPa 0,0 l/m 0,0 m/s (0 Bft) O 80 0,00 min 22,5 klux 10,5 C 13,0 C
03.06.2005 07:40 13,0 C 12,0 C 82 % 1014 hPa 0,0 l/m 0,0 m/s (0 Bft) O 80 0,00 min 25,1 klux 10,0 C 13,0 C
03.06.2005 07:45 13,3 C 12,2 C 82 % 1014 hPa 0,0 l/m 0,0 m/s (0 Bft) O67.5 95 5,00 min 29,3 klux 10,3 C 13,3 C
03.06.2005 07:50 14,2 C 12,2 C 76 % 1014 hPa 0,0 l/m 0,0 m/s (0 Bft) SW 225 5,00 min 28,8 klux 10,0 C 14,2 C
03.06.2005 07:55 15,4 C 12,3 C 71 % 1014 hPa 0,0 l/m 0,0 m/s (0 Bft) SW 225 5,00 min 39,1 klux 10,2 C 15,4 C
03.06.2005 08:00 17,1 C 12,3 C 64 % 1014 hPa 0,0 l/m 0,0 m/s (0 Bft) SW 225 5,00 min 40,3 klux 10,2 C 17,1 C
03.06.2005 08:05 17,3 C 12,4 C 59 % 1014 hPa 0,0 l/m 0,0 m/s (0 Bft) S 190 5,00 min 39,2 klux 9,2 C 17,3 C
03.06.2005 08:10 17,9 C 12,4 C 56 % 1014 hPa 0,0 l/m 0,0 m/s (0 Bft) S 185 5,00 min 37,9 klux 9,0 C 17,9 C
03.06.2005 08:15 19,0 C 12,5 C 54 % 1014 hPa 0,0 l/m 0,0 m/s (0 Bft) S 185 5,00 min 36,7 klux 9,5 C 19,0 C
03.06.2005 08:20 19,5 C 12,6 C 53 % 1014 hPa 0,0 l/m 0,0 m/s (0 Bft) S 190 5,00 min 38,7 klux 9,7 C 19,5 C
03.06.2005 08:25 18,6 C 12,8 C 54 % 1014 hPa 0,0 l/m 0,0 m/s (0 Bft) SO45 140 5,00 min 47,4 klux 9,1 C 18,6 C
03.06.2005 08:30 18,9 C 13,0 C 58 % 1014 hPa 0,0 l/m 0,0 m/s (0 Bft) O-SO 120 5,00 min 48,8 klux 10,5 C 18,9 C
03.06.2005 08:35 19,8 C 13,1 C 56 % 1014 hPa 0,0 l/m 0,0 m/s (0 Bft) SO 125 5,00 min 50,9 klux 10,8 C 19,8 C
03.06.2005 08:40 19,3 C 13,5 C 56 % 1014 hPa 0,0 l/m 0,0 m/s (0 Bft) O-SO 120 5,00 min 51,6 klux 10,3 C 19,3 C
03.06.2005 08:45 18,0 C 13,8 C 66 % 1014 hPa 0,0 l/m 1,3 m/s (1 Bft) O-SO22.5 105 5,00 min 44,0 klux 11,6 C 18,0 C
03.06.2005 08:50 17,8 C 14,1 C 70 % 1014 hPa 0,0 l/m 0,9 m/s (0 Bft) O-SO45 115 5,00 min 44,4 klux 12,3 C 17,8 C
03.06.2005 08:55 17,8 C 14,3 C 70 % 1014 hPa 0,0 l/m 1,5 m/s (1 Bft) O22.5 100 5,00 min 53,9 klux 12,3 C 17,8 C
03.06.2005 09:00 18,4 C 14,5 C 68 % 1014 hPa 0,0 l/m 1,7 m/s (1 Bft) O22.5 100 5,00 min 50,6 klux 12,4 C 18,4 C
03.06.2005 09:05 18,5 C 14,9 C 69 % 1014 hPa 0,0 l/m 2,1 m/s (1 Bft) O45 100 5,00 min 56,4 klux 12,7 C 18,0 C
03.06.2005 09:10 18,5 C 15,1 C 69 % 1014 hPa 0,0 l/m 1,9 m/s (1 Bft) SO22.5 135 5,00 min 59,4 klux 12,7 C 18,3 C
03.06.2005 09:15 18,3 C 15,4 C 67 % 1014 hPa 0,0 l/m 2,1 m/s (1 Bft) O22.5 85 5,00 min 48,0 klux 12,1 C 17,8 C
03.06.2005 09:20 18,7 C 15,6 C 67 % 1014 hPa 0,0 l/m 2,3 m/s (1 Bft) SO22.5 135 5,00 min 56,7 klux 12,4 C 17,9 C
03.06.2005 09:25 19,0 C 15,8 C 67 % 1014 hPa 0,0 l/m 2,1 m/s (1 Bft) O-SO22.5 105 5,00 min 60,6 klux 12,7 C 18,4 C
03.06.2005 09:30 19,5 C 16,0 C 66 % 1014 hPa 0,0 l/m 1,9 m/s (1 Bft) SO45 135 5,00 min 62,3 klux 13,0 C 19,3 C
03.06.2005 09:35 20,0 C 16,4 C 63 % 1014 hPa 0,0 l/m 2,3 m/s (1 Bft) SO22.5 125 5,00 min 62,8 klux 12,7 C 19,3 C
03.06.2005 09:40 19,6 C 16,6 C 63 % 1014 hPa 0,0 l/m 2,2 m/s (1 Bft) O45 100 5,00 min 63,5 klux 12,4 C 19,0 C
03.06.2005 09:45 20,0 C 16,9 C 62 % 1014 hPa 0,0 l/m 2,3 m/s (1 Bft) O-SO22.5 115 5,00 min 64,2 klux 12,5 C 19,3 C
03.06.2005 09:50 20,4 C 17,6 C 61 % 1014 hPa 0,0 l/m 2,9 m/s (1 Bft) O22.5 100 5,00 min 65,1 klux 12,6 C 18,9 C
03.06.2005 09:55 20,5 C 18,8 C 59 % 1014 hPa 0,0 l/m 2,3 m/s (1 Bft) O-SO22.5 115 5,00 min 66,1 klux 12,2 C 19,8 C
03.06.2005 10:00 20,7 C 19,5 C 58 % 1014 hPa 0,0 l/m 1,9 m/s (1 Bft) O-SO45 120 5,00 min 66,9 klux 12,1 C 20,5 C
03.06.2005 10:05 20,8 C 20,8 C 58 % 1014 hPa 0,0 l/m 2,1 m/s (1 Bft) SO45 135 5,00 min 67,4 klux 12,2 C 20,3 C
03.06.2005 10:10 20,8 C 21,9 C 59 % 1014 hPa 0,0 l/m 2,2 m/s (1 Bft) O-SO45 105 5,00 min 68,3 klux 12,5 C 20,2 C
03.06.2005 10:15 20,8 C 22,4 C 59 % 1014 hPa 0,0 l/m 2,4 m/s (1 Bft) O67.5 90 5,00 min 69,9 klux 12,5 C 20,0 C
03.06.2005 10:20 21,4 C 23,3 C 56 % 1014 hPa 0,0 l/m 1,3 m/s (1 Bft) W-SW67.5 255 5,00 min 70,4 klux 12,3 C 21,4 C
03.06.2005 10:25 21,7 C 24,1 C 54 % 1014 hPa 0,0 l/m 0,1 m/s (0 Bft) NW67.5 315 5,00 min 71,8 klux 12,0 C 21,7 C
03.06.2005 10:30 22,0 C 25,1 C 51 % 1014 hPa 0,0 l/m 0,2 m/s (0 Bft) SO45 140 5,00 min 72,6 klux 11,4 C 22,0 C
03.06.2005 10:35 21,6 C 25,4 C 49 % 1014 hPa 0,0 l/m 0,5 m/s (0 Bft) S-SW67.5 195 5,00 min 74,0 klux 10,4 C 21,6 C
03.06.2005 10:40 22,8 C 25,8 C 50 % 1013 hPa 0,0 l/m 3,1 m/s (1 Bft) S-SO45 160 5,00 min 75,0 klux 11,8 C 21,4 C
03.06.2005 10:45 22,5 C 26,2 C 45 % 1013 hPa 0,0 l/m 3,0 m/s (1 Bft) S-SO67.5 160 5,00 min 75,9 klux 10,0 C 21,2 C
03.06.2005 10:50 22,7 C 26,3 C 46 % 1013 hPa 0,0 l/m 3,1 m/s (1 Bft) S67.5 185 5,00 min 76,4 klux 10,5 C 21,3 C
03.06.2005 10:55 22,5 C 26,7 C 45 % 1013 hPa 0,0 l/m 3,4 m/s (1 Bft) W-SW67.5 240 5,00 min 76,8 klux 10,0 C 20,9 C
03.06.2005 11:00 22,6 C 26,9 C 47 % 1013 hPa 0,0 l/m 4,6 m/s (1 Bft) W45 265 5,00 min 77,2 klux 10,7 C 20,1 C
03.06.2005 11:05 22,6 C 27,1 C 46 % 1013 hPa 0,0 l/m 2,7 m/s (1 Bft) W-SW67.5 245 5,00 min 78,2 klux 10,4 C 21,6 C
03.06.2005 11:10 22,7 C 27,2 C 47 % 1013 hPa 0,0 l/m 3,4 m/s (1 Bft) W-SW22.5 250 5,00 min 79,0 klux 10,8 C 21,1 C
03.06.2005 11:15 23,2 C 27,4 C 46 % 1013 hPa 0,0 l/m 3,8 m/s (1 Bft) SW67.5 225 5,00 min 79,6 klux 10,9 C 21,3 C
03.06.2005 11:20 23,4 C 27,5 C 44 % 1013 hPa 0,0 l/m 2,2 m/s (1 Bft) SO45 140 5,00 min 80,1 klux 10,4 C 22,9 C
03.06.2005 11:25 23,3 C 27,6 C 43 % 1013 hPa 0,0 l/m 3,5 m/s (1 Bft) S-SW67.5 205 5,00 min 81,6 klux 10,0 C 21,7 C
03.06.2005 11:30 23,1 C 27,8 C 41 % 1013 hPa 0,0 l/m 3,1 m/s (1 Bft) SW67.5 230 5,00 min 82,5 klux 9,1 C 21,8 C
03.06.2005 11:35 23,6 C 28,1 C 43 % 1013 hPa 0,0 l/m 1,6 m/s (1 Bft) SO45 130 5,00 min 83,4 klux 10,3 C 23,6 C
03.06.2005 11:40 23,7 C 28,5 C 42 % 1013 hPa 0,0 l/m 3,0 m/s (1 Bft) S67.5 180 5,00 min 84,3 klux 10,0 C 22,5 C
03.06.2005 11:45 24,3 C 28,6 C 40 % 1013 hPa 0,0 l/m 4,2 m/s (1 Bft) SO67.5 145 5,00 min 84,2 klux 9,8 C 22,5 C
03.06.2005 11:50 24,5 C 28,7 C 39 % 1013 hPa 0,0 l/m 5,0 m/s (1 Bft) S-SW67.5 195 5,00 min 84,4 klux 9,6 C 22,3 C
03.06.2005 11:55 24,4 C 28,9 C 40 % 1013 hPa 0,0 l/m 3,6 m/s (1 Bft) S-SO45 160 5,00 min 85,9 klux 9,9 C 22,9 C
03.06.2005 12:00 24,7 C 28,7 C 38 % 1013 hPa 0,0 l/m 5,1 m/s (1 Bft) S-SO67.5 155 5,00 min 85,8 klux 9,4 C 22,5 C
03.06.2005 12:05 24,7 C 28,7 C 37 % 1013 hPa 0,0 l/m 3,8 m/s (1 Bft) S-SO67.5 155 5,00 min 86,0 klux 9,0 C 23,2 C
03.06.2005 12:10 25,1 C 28,3 C 38 % 1013 hPa 0,0 l/m 3,1 m/s (1 Bft) S-SO67.5 150 5,00 min 86,0 klux 9,8 C 24,0 C
03.06.2005 12:15 24,8 C 28,4 C 38 % 1013 hPa 0,0 l/m 5,3 m/s (1 Bft) S-SO22.5 150 5,00 min 86,7 klux 9,5 C 22,5 C
03.06.2005 12:20 24,5 C 28,9 C 39 % 1013 hPa 0,0 l/m 4,9 m/s (1 Bft) W45 265 5,00 min 86,5 klux 9,6 C 22,3 C
03.06.2005 12:25 24,3 C 29,4 C 40 % 1013 hPa 0,0 l/m 4,4 m/s (1 Bft) W-SW67.5 255 5,00 min 88,0 klux 9,8 C 22,3 C
03.06.2005 12:30 24,5 C 29,7 C 42 % 1012 hPa 0,0 l/m 2,6 m/s (1 Bft) SW67.5 215 5,00 min 88,3 klux 10,7 C 23,8 C
03.06.2005 12:35 24,6 C 29,7 C 42 % 1012 hPa 0,0 l/m 5,0 m/s (1 Bft) W-SW45 255 5,00 min 88,7 klux 10,8 C 22,4 C
03.06.2005 12:40 25,0 C 30,0 C 41 % 1012 hPa 0,0 l/m 2,9 m/s (1 Bft) S67.5 185 5,00 min 88,6 klux 10,8 C 24,0 C
03.06.2005 12:45 25,5 C 30,2 C 40 % 1012 hPa 0,0 l/m 2,5 m/s (1 Bft) SO67.5 140 5,00 min 89,2 klux 10,9 C 24,9 C
03.06.2005 12:50 25,4 C 30,4 C 41 % 1012 hPa 0,0 l/m 4,1 m/s (1 Bft) SO45 145 5,00 min 89,1 klux 11,2 C 23,8 C
03.06.2005 12:55 25,5 C 30,4 C 42 % 1012 hPa 0,0 l/m 5,5 m/s (1 Bft) S-SO45 150 5,00 min 92,1 klux 11,6 C 23,3 C
03.06.2005 13:00 25,5 C 30,6 C 42 % 1012 hPa 0,0 l/m 4,5 m/s (1 Bft) SO67.5 135 5,00 min 91,7 klux 11,6 C 23,8 C
03.06.2005 13:05 25,3 C 30,8 C 39 % 1012 hPa 0,0 l/m 5,5 m/s (1 Bft) SO45 125 5,00 min 90,4 klux 10,3 C 23,1 C
03.06.2005 13:10 25,7 C 30,9 C 40 % 1012 hPa 0,0 l/m 4,3 m/s (1 Bft) S-SO67.5 150 5,00 min 90,6 klux 11,1 C 24,1 C
03.06.2005 13:15 25,6 C 30,9 C 40 % 1012 hPa 0,0 l/m 3,6 m/s (1 Bft) SO45 135 5,00 min 90,9 klux 11,0 C 24,3 C
03.06.2005 13:20 25,8 C 31,0 C 38 % 1012 hPa 0,0 l/m 2,4 m/s (1 Bft) S67.5 180 5,00 min 91,8 klux 10,4 C 25,3 C
03.06.2005 13:25 26,0 C 31,7 C 40 % 1012 hPa 0,0 l/m 1,9 m/s (1 Bft) O-SO67.5 120 5,00 min 91,6 klux 11,3 C 25,9 C
03.06.2005 13:30 26,1 C 31,6 C 38 % 1012 hPa 0,0 l/m 3,6 m/s (1 Bft) S-SO67.5 150 5,00 min 92,6 klux 10,7 C 24,9 C
03.06.2005 13:35 25,8 C 31,9 C 37 % 1012 hPa 0,0 l/m 5,8 m/s (2 Bft) SO67.5 145 5,00 min 83,8 klux 10,0 C 23,6 C
03.06.2005 13:40 26,3 C 31,9 C 35 % 1012 hPa 0,0 l/m 4,1 m/s (1 Bft) S-SO67.5 160 5,00 min 87,4 klux 9,6 C 24,9 C
03.06.2005 13:45 26,5 C 31,8 C 36 % 1012 hPa 0,0 l/m 3,9 m/s (1 Bft) S67.5 175 5,00 min 92,2 klux 10,2 C 25,2 C
03.06.2005 13:50 26,6 C 31,7 C 36 % 1011 hPa 0,0 l/m 3,8 m/s (1 Bft) S67.5 190 5,00 min 81,9 klux 10,3 C 25,4 C
03.06.2005 13:55 26,7 C 31,6 C 35 % 1011 hPa 0,0 l/m 5,1 m/s (1 Bft) S-SO45 155 5,00 min 102 klux 10,0 C 25,0 C
03.06.2005 14:00 26,7 C 31,6 C 35 % 1011 hPa 0,0 l/m 4,4 m/s (1 Bft) SO45 125 0,00 min 60,7 klux 10,0 C 25,3 C
03.06.2005 14:05 26,4 C 31,5 C 33 % 1011 hPa 0,0 l/m 3,7 m/s (1 Bft) SW67.5 220 0,00 min 68,6 klux 8,8 C 25,2 C
03.06.2005 14:10 26,5 C 31,3 C 33 % 1011 hPa 0,0 l/m 3,3 m/s (1 Bft) S-SO67.5 165 5,00 min 72,4 klux 8,9 C 25,5 C
03.06.2005 14:15 26,6 C 31,5 C 35 % 1011 hPa 0,0 l/m 4,5 m/s (1 Bft) SO45 125 5,00 min 88,7 klux 9,9 C 25,1 C
03.06.2005 14:20 26,9 C 32,2 C 35 % 1011 hPa 0,0 l/m 3,9 m/s (1 Bft) S-SO67.5 160 5,00 min 89,1 klux 10,1 C 25,7 C
03.06.2005 14:25 26,7 C 32,6 C 35 % 1011 hPa 0,0 l/m 3,6 m/s (1 Bft) SO67.5 145 5,00 min 73,3 klux 10,0 C 25,6 C
03.06.2005 14:30 27,1 C 32,8 C 33 % 1011 hPa 0,0 l/m 3,5 m/s (1 Bft) O-SO45 120 5,00 min 97,5 klux 9,4 C 26,1 C
03.06.2005 14:35 27,6 C 33,8 C 32 % 1011 hPa 0,0 l/m 3,4 m/s (1 Bft) S67.5 185 5,00 min 96,0 klux 9,4 C 26,8 C
03.06.2005 14:40 26,9 C 33,6 C 27 % 1011 hPa 0,0 l/m 4,3 m/s (1 Bft) SO45 135 0,00 min 66,4 klux 6,3 C 25,6 C
03.06.2005 14:45 27,3 C 33,8 C 27 % 1011 hPa 0,0 l/m 3,5 m/s (1 Bft) S67.5 185 5,00 min 71,0 klux 6,6 C 26,4 C
03.06.2005 14:50 27,6 C 33,7 C 27 % 1010 hPa 0,0 l/m 3,0 m/s (1 Bft) SW67.5 215 5,00 min 69,5 klux 6,9 C 26,9 C
03.06.2005 14:55 27,6 C 33,4 C 27 % 1010 hPa 0,0 l/m 5,4 m/s (1 Bft) S-SW67.5 205 5,00 min 74,8 klux 6,9 C 26,1 C
03.06.2005 15:00 27,4 C 32,7 C 26 % 1010 hPa 0,0 l/m 6,4 m/s (2 Bft) SW67.5 225 5,00 min 79,2 klux 6,2 C 25,5 C
03.06.2005 15:05 27,0 C 32,1 C 25 % 1010 hPa 0,0 l/m 5,0 m/s (1 Bft) S-SW67.5 195 0,00 min 54,2 klux 5,3 C 25,4 C
03.06.2005 15:10 27,0 C 31,3 C 25 % 1010 hPa 0,0 l/m 6,3 m/s (2 Bft) SW67.5 235 0,00 min 59,7 klux 5,3 C 25,0 C
03.06.2005 15:15 27,4 C 31,2 C 25 % 1010 hPa 0,0 l/m 5,1 m/s (1 Bft) W-SW67.5 245 0,00 min 61,9 klux 5,6 C 25,9 C
03.06.2005 15:20 27,5 C 31,2 C 26 % 1010 hPa 0,0 l/m 3,4 m/s (1 Bft) SW45 215 0,00 min 58,8 klux 6,3 C 26,6 C
03.06.2005 15:25 27,7 C 31,3 C 26 % 1010 hPa 0,0 l/m 5,6 m/s (1 Bft) SW67.5 215 5,00 min 73,3 klux 6,4 C 26,1 C
03.06.2005 15:30 27,2 C 31,6 C 25 % 1010 hPa 0,0 l/m 6,9 m/s (2 Bft) W-SW67.5 240 5,00 min 76,4 klux 5,5 C 25,2 C
03.06.2005 15:35 27,2 C 31,0 C 26 % 1010 hPa 0,0 l/m 4,0 m/s (1 Bft) S-SO67.5 160 0,00 min 56,4 klux 6,0 C 26,0 C
03.06.2005 15:40 27,8 C 31,1 C 26 % 1010 hPa 0,0 l/m 3,6 m/s (1 Bft) S-SO67.5 165 5,00 min 83,1 klux 6,5 C 26,9 C
03.06.2005 15:45 27,7 C 31,5 C 26 % 1010 hPa 0,0 l/m 5,6 m/s (1 Bft) W-SW67.5 240 5,00 min 78,2 klux 6,4 C 26,1 C
03.06.2005 15:50 27,5 C 31,6 C 25 % 1010 hPa 0,0 l/m 5,2 m/s (1 Bft) SW67.5 230 0,00 min 52,4 klux 5,7 C 26,0 C
03.06.2005 15:55 27,0 C 31,4 C 25 % 1010 hPa 0,0 l/m 6,2 m/s (2 Bft) W67.5 265 0,00 min 50,6 klux 5,3 C 25,1 C
03.06.2005 16:00 27,3 C 30,9 C 26 % 1010 hPa 0,0 l/m 6,3 m/s (2 Bft) W-SW45 240 0,00 min 53,2 klux 6,1 C 25,4 C
03.06.2005 16:05 27,6 C 30,9 C 26 % 1010 hPa 0,0 l/m 3,1 m/s (1 Bft) W-SW67.5 240 5,00 min 62,3 klux 6,4 C 26,9 C
03.06.2005 16:10 27,4 C 30,6 C 26 % 1010 hPa 0,0 l/m 6,3 m/s (2 Bft) SW67.5 215 0,00 min 48,9 klux 6,2 C 25,6 C
03.06.2005 16:15 27,3 C 30,6 C 25 % 1010 hPa 0,0 l/m 5,2 m/s (1 Bft) S67.5 175 0,00 min 54,1 klux 5,5 C 25,8 C
03.06.2005 16:20 27,3 C 30,3 C 26 % 1010 hPa 0,0 l/m 5,8 m/s (1 Bft) S-SW67.5 195 0,00 min 49,8 klux 6,1 C 25,6 C
03.06.2005 16:25 26,9 C 30,0 C 28 % 1010 hPa 0,0 l/m 4,4 m/s (1 Bft) S67.5 190 0,00 min 47,4 klux 6,8 C 25,5 C
03.06.2005 16:30 27,1 C 30,0 C 28 % 1010 hPa 0,0 l/m 3,8 m/s (1 Bft) SW67.5 225 0,00 min 53,0 klux 7,0 C 26,0 C
03.06.2005 16:35 27,2 C 30,3 C 28 % 1010 hPa 0,0 l/m 3,7 m/s (1 Bft) SW67.5 215 5,00 min 57,9 klux 7,1 C 26,2 C
03.06.2005 16:40 27,3 C 30,3 C 30 % 1010 hPa 0,0 l/m 5,6 m/s (1 Bft) S67.5 180 5,00 min 53,9 klux 8,2 C 25,6 C
03.06.2005 16:45 26,3 C 30,1 C 30 % 1009 hPa 0,0 l/m 5,5 m/s (1 Bft) W-SW45 245 0,00 min 38,7 klux 7,3 C 24,4 C
03.06.2005 16:50 26,4 C 29,6 C 30 % 1009 hPa 0,0 l/m 6,2 m/s (2 Bft) SW67.5 235 0,00 min 39,6 klux 7,4 C 24,3 C
03.06.2005 16:55 26,5 C 29,3 C 31 % 1009 hPa 0,0 l/m 5,3 m/s (1 Bft) SW67.5 235 5,00 min 52,8 klux 8,0 C 24,7 C
03.06.2005 17:00 27,1 C 29,6 C 31 % 1009 hPa 0,0 l/m 4,8 m/s (1 Bft) SW45 235 5,00 min 71,1 klux 8,5 C 25,6 C
03.06.2005 17:05 27,5 C 30,2 C 31 % 1009 hPa 0,0 l/m 3,9 m/s (1 Bft) W-SW45 240 5,00 min 78,4 klux 8,8 C 26,4 C
03.06.2005 17:10 27,3 C 31,5 C 31 % 1009 hPa 0,0 l/m 3,7 m/s (1 Bft) W-SW45 250 5,00 min 60,9 klux 8,7 C 26,3 C
03.06.2005 17:15 27,0 C 31,0 C 32 % 1009 hPa 0,0 l/m 4,8 m/s (1 Bft) W-SW45 250 0,00 min 42,2 klux 8,9 C 25,5 C
03.06.2005 17:20 26,8 C 30,7 C 32 % 1009 hPa 0,0 l/m 5,1 m/s (1 Bft) SW45 230 0,00 min 35,9 klux 8,7 C 25,2 C
03.06.2005 17:25 26,6 C 30,3 C 33 % 1009 hPa 0,0 l/m 3,1 m/s (1 Bft) SW67.5 230 0,00 min 42,2 klux 9,0 C 25,8 C
03.06.2005 17:30 26,7 C 30,1 C 33 % 1009 hPa 0,0 l/m 5,3 m/s (1 Bft) SW67.5 230 0,00 min 42,3 klux 9,1 C 25,0 C
03.06.2005 17:35 26,6 C 29,9 C 33 % 1009 hPa 0,0 l/m 3,0 m/s (1 Bft) S-SW67.5 205 0,00 min 39,8 klux 9,0 C 25,8 C
03.06.2005 17:40 26,6 C 30,0 C 33 % 1008 hPa 0,0 l/m 4,6 m/s (1 Bft) S-SO45 150 0,00 min 39,7 klux 9,0 C 25,1 C
03.06.2005 17:45 27,3 C 30,3 C 32 % 1008 hPa 0,0 l/m 2,4 m/s (1 Bft) S-SW67.5 205 5,00 min 57,3 klux 9,1 C 26,9 C
03.06.2005 17:50 27,5 C 31,4 C 31 % 1008 hPa 0,0 l/m 2,4 m/s (1 Bft) S-SW67.5 205 5,00 min 61,5 klux 8,8 C 27,1 C
03.06.2005 17:55 27,1 C 31,2 C 31 % 1008 hPa 0,0 l/m 2,6 m/s (1 Bft) S67.5 170 0,00 min 34,8 klux 8,5 C 26,6 C
03.06.2005 18:00 27,5 C 30,9 C 31 % 1008 hPa 0,0 l/m 3,7 m/s (1 Bft) S-SO45 155 5,00 min 49,6 klux 8,8 C 26,5 C
03.06.2005 18:05 27,4 C 31,3 C 31 % 1008 hPa 0,0 l/m 4,5 m/s (1 Bft) S-SO67.5 160 5,00 min 57,7 klux 8,8 C 26,1 C
03.06.2005 18:10 27,4 C 31,5 C 30 % 1008 hPa 0,0 l/m 3,8 m/s (1 Bft) SO67.5 135 5,00 min 50,4 klux 8,3 C 26,3 C
03.06.2005 18:15 27,4 C 31,5 C 32 % 1008 hPa 0,0 l/m 2,8 m/s (1 Bft) S-SW67.5 195 5,00 min 44,5 klux 9,2 C 26,8 C
03.06.2005 18:20 27,5 C 32,1 C 30 % 1008 hPa 0,0 l/m 3,8 m/s (1 Bft) S-SW67.5 195 5,00 min 56,4 klux 8,4 C 26,5 C
03.06.2005 18:25 27,1 C 31,9 C 30 % 1007 hPa 0,0 l/m 5,6 m/s (1 Bft) SO45 140 5,00 min 53,6 klux 8,0 C 25,4 C
03.06.2005 18:30 26,8 C 31,9 C 31 % 1007 hPa 0,0 l/m 8,1 m/s (2 Bft) SO22.5 140 5,00 min 41,5 klux 8,2 C 24,3 C
03.06.2005 18:35 26,6 C 30,6 C 31 % 1007 hPa 0,0 l/m 8,8 m/s (2 Bft) SO45 135 0,00 min 24,3 klux 8,1 C 23,9 C
03.06.2005 18:40 26,3 C 29,9 C 32 % 1007 hPa 0,0 l/m 3,2 m/s (1 Bft) SO45 140 0,00 min 18,6 klux 8,3 C 25,4 C
03.06.2005 18:45 26,2 C 29,6 C 32 % 1007 hPa 0,0 l/m 2,6 m/s (1 Bft) S67.5 180 0,00 min 17,3 klux 8,2 C 25,6 C
03.06.2005 18:50 26,1 C 29,2 C 32 % 1007 hPa 0,0 l/m 2,9 m/s (1 Bft) S-SO67.5 160 0,00 min 16,5 klux 8,1 C 25,3 C
03.06.2005 18:55 26,2 C 29,0 C 31 % 1007 hPa 0,0 l/m 2,9 m/s (1 Bft) S-SW67.5 200 5,00 min 30,0 klux 7,7 C 25,4 C
03.06.2005 19:00 26,6 C 29,3 C 31 % 1007 hPa 0,0 l/m 2,8 m/s (1 Bft) S-SW67.5 205 5,00 min 35,2 klux 8,1 C 25,9 C
03.06.2005 19:05 26,5 C 29,3 C 32 % 1007 hPa 0,0 l/m 1,9 m/s (1 Bft) S-SW45 195 0,00 min 13,6 klux 8,4 C 26,4 C
03.06.2005 19:10 25,7 C 28,6 C 33 % 1007 hPa 0,0 l/m 1,4 m/s (1 Bft) SW22.5 220 0,00 min 11,0 klux 8,2 C 25,7 C
03.06.2005 19:15 25,5 C 28,0 C 34 % 1007 hPa 0,0 l/m 1,8 m/s (1 Bft) SW67.5 225 0,00 min 9,6 klux 8,5 C 25,5 C
03.06.2005 19:20 25,2 C 27,8 C 35 % 1007 hPa 0,0 l/m 1,2 m/s (1 Bft) SW45 215 0,00 min 8,97 klux 8,6 C 25,2 C
03.06.2005 19:25 24,9 C 27,3 C 36 % 1007 hPa 0,0 l/m 0,2 m/s (0 Bft) S45 185 0,00 min 8,28 klux 8,8 C 24,9 C
03.06.2005 19:30 24,9 C 26,9 C 36 % 1007 hPa 0,0 l/m 0,1 m/s (0 Bft) SW22.5 230 0,00 min 7,20 klux 8,8 C 24,9 C
03.06.2005 19:35 24,6 C 26,8 C 37 % 1007 hPa 0,0 l/m 0,3 m/s (0 Bft) S-SW45 195 0,00 min 5,63 klux 8,9 C 24,6 C
03.06.2005 19:40 24,3 C 26,5 C 39 % 1007 hPa 0,0 l/m 0,0 m/s (0 Bft) S-SO45 155 0,00 min 4,37 klux 9,4 C 24,3 C
03.06.2005 19:45 24,1 C 26,1 C 39 % 1007 hPa 0,0 l/m 0,0 m/s (0 Bft) S-SO67.5 160 0,00 min 3,71 klux 9,3 C 24,1 C
03.06.2005 19:50 24,1 C 25,9 C 40 % 1007 hPa 0,0 l/m 0,1 m/s (0 Bft) S-SO22.5 160 0,00 min 2,16 klux 9,6 C 24,1 C
03.06.2005 19:55 23,8 C 25,7 C 42 % 1007 hPa 0,0 l/m 1,7 m/s (1 Bft) SO45 140 0,00 min 1,70 klux 10,1 C 23,8 C
03.06.2005 20:00 23,7 C 25,4 C 40 % 1007 hPa 0,0 l/m 2,4 m/s (1 Bft) SO45 140 0,00 min 1,01 klux 9,3 C 23,0 C
03.06.2005 20:05 23,7 C 25,3 C 40 % 1007 hPa 0,0 l/m 0,2 m/s (0 Bft) SO22.5 145 0,00 min 515 lux 9,3 C 23,7 C
03.06.2005 20:10 23,7 C 25,2 C 41 % 1007 hPa 0,0 l/m 19,6 m/s (3 Bft) S45 170 0,00 min 207 lux 9,7 C 18,2 C
03.06.2005 20:15 18,1 C 24,3 C 41 % 1008 hPa 1,1 l/m 17,4 m/s (3 Bft) W-SW22.5 255 0,00 min 70 lux 4,6 C 9,5 C
03.06.2005 20:20 16,4 C 21,5 C 41 % 1009 hPa 1,8 l/m 0,1 m/s (0 Bft) W45 260 0,00 min 46 lux 3,1 C 16,4 C
03.06.2005 20:25 15,5 C 20,6 C 82 % 1010 hPa 1,1 l/m 7,5 m/s (2 Bft) W45 270 0,00 min 59 lux 12,4 C 8,9 C
03.06.2005 20:30 15,7 C 19,4 C 84 % 1010 hPa 0,0 l/m 3,6 m/s (1 Bft) W-SW45 255 0,00 min 70 lux 13,0 C 12,7 C
03.06.2005 20:35 15,7 C 18,6 C 86 % 1009 hPa 0,7 l/m 3,6 m/s (1 Bft) W-NW22.5 285 0,00 min 92 lux 13,4 C 12,8 C
03.06.2005 20:40 15,7 C 18,1 C 86 % 1009 hPa 0,0 l/m 0,3 m/s (0 Bft) NW22.5 310 0,00 min 181 lux 13,4 C 15,7 C
03.06.2005 20:45 15,6 C 17,9 C 88 % 1009 hPa 0,0 l/m 2,7 m/s (1 Bft) W-SW22.5 255 0,00 min 192 lux 13,6 C 14,0 C
03.06.2005 20:50 15,6 C 17,7 C 88 % 1009 hPa 0,4 l/m 3,2 m/s (1 Bft) W22.5 260 0,00 min 155 lux 13,6 C 13,2 C
03.06.2005 20:55 15,6 C 17,4 C 88 % 1009 hPa 1,1 l/m 5,2 m/s (1 Bft) W45 270 0,00 min 155 lux 13,6 C 10,9 C
03.06.2005 21:00 15,9 C 17,3 C 88 % 1009 hPa 0,4 l/m 4,8 m/s (1 Bft) W67.5 275 0,00 min 232 lux 13,9 C 11,6 C
03.06.2005 21:05 16,2 C 17,1 C 86 % 1009 hPa 0,4 l/m 5,0 m/s (1 Bft) NW45 305 0,00 min 259 lux 13,9 C 11,8 C
03.06.2005 21:10 16,2 C 16,9 C 86 % 1009 hPa 0,0 l/m 3,4 m/s (1 Bft) W-SW45 245 0,00 min 236 lux 13,9 C 13,5 C
03.06.2005 21:15 16,1 C 16,9 C 86 % 1010 hPa 0,0 l/m 4,0 m/s (1 Bft) W45 260 0,00 min 232 lux 13,8 C 12,7 C
03.06.2005 21:20 16,2 C 16,8 C 86 % 1010 hPa 0,4 l/m 4,5 m/s (1 Bft) W-SW45 250 0,00 min 170 lux 13,9 C 12,3 C
03.06.2005 21:25 16,2 C 16,7 C 86 % 1010 hPa 0,0 l/m 4,1 m/s (1 Bft) W-SW67.5 240 0,00 min 116 lux 13,9 C 12,7 C
03.06.2005 21:30 16,3 C 16,5 C 84 % 1009 hPa 0,0 l/m 4,6 m/s (1 Bft) W-SW67.5 255 0,00 min 101 lux 13,6 C 12,3 C
03.06.2005 21:35 16,2 C 16,5 C 84 % 1009 hPa 0,0 l/m 4,9 m/s (1 Bft) W45 260 0,00 min 85 lux 13,5 C 11,9 C
03.06.2005 21:40 16,3 C 16,4 C 84 % 1009 hPa 0,0 l/m 5,2 m/s (1 Bft) W45 265 0,00 min 77 lux 13,6 C 11,7 C
03.06.2005 21:45 16,2 C 16,4 C 84 % 1009 hPa 0,0 l/m 4,0 m/s (1 Bft) W22.5 260 0,00 min 71 lux 13,5 C 12,9 C
03.06.2005 21:50 16,0 C 16,4 C 85 % 1009 hPa 0,0 l/m 1,7 m/s (1 Bft) W-SW45 255 0,00 min 63 lux 13,5 C 16,0 C
03.06.2005 21:55 16,0 C 16,3 C 86 % 1009 hPa 0,0 l/m 1,3 m/s (1 Bft) W-SW22.5 255 0,00 min 49 lux 13,7 C 16,0 C
03.06.2005 22:00 15,8 C 16,2 C 87 % 1009 hPa 0,0 l/m 2,4 m/s (1 Bft) W-SW45 245 0,00 min 34 lux 13,6 C 14,6 C
03.06.2005 22:05 15,7 C 16,1 C 87 % 1009 hPa 0,0 l/m 1,0 m/s (0 Bft) SW67.5 230 0,00 min 23 lux 13,5 C 15,7 C
03.06.2005 22:10 15,6 C 16,1 C 87 % 1009 hPa 0,0 l/m 2,7 m/s (1 Bft) SW67.5 215 0,00 min 15 lux 13,4 C 14,0 C
03.06.2005 22:15 15,6 C 16,0 C 87 % 1009 hPa 0,0 l/m 1,4 m/s (1 Bft) SW22.5 235 0,00 min 12 lux 13,4 C 15,6 C
03.06.2005 22:20 15,4 C 15,9 C 88 % 1009 hPa 0,0 l/m 0,1 m/s (0 Bft) W 275 0,00 min 8 lux 13,4 C 15,4 C
03.06.2005 22:25 15,1 C 15,9 C 88 % 1009 hPa 0,0 l/m 0,0 m/s (0 Bft) W 275 0,00 min 6 lux 13,1 C 15,1 C
03.06.2005 22:30 15,0 C 15,8 C 88 % 1009 hPa 0,0 l/m 0,0 m/s (0 Bft) W 280 0,00 min 4 lux 13,0 C 15,0 C
03.06.2005 22:35 15,0 C 15,6 C 89 % 1009 hPa 0,0 l/m 0,0 m/s (0 Bft) W 280 0,00 min 2 lux 13,2 C 15,0 C
03.06.2005 22:40 15,1 C 15,6 C 90 % 1009 hPa 0,0 l/m 1,3 m/s (1 Bft) W-NW22.5 290 0,00 min 1 lux 13,5 C 15,1 C
03.06.2005 22:45 15,1 C 15,5 C 91 % 1009 hPa 0,0 l/m 0,3 m/s (0 Bft) W22.5 265 0,00 min 1 lux 13,6 C 15,1 C
03.06.2005 22:50 15,1 C 15,5 C 91 % 1009 hPa 0,0 l/m 0,0 m/s (0 Bft) SW22.5 225 0,00 min 1 lux 13,6 C 15,1 C
03.06.2005 22:55 15,0 C 15,5 C 91 % 1009 hPa 0,0 l/m 0,0 m/s (0 Bft) SW 215 0,00 min 1 lux 13,5 C 15,0 C
03.06.2005 23:00 15,1 C 15,5 C 91 % 1009 hPa 0,0 l/m 0,0 m/s (0 Bft) S-SW45 200 0,00 min 0 lux 13,6 C 15,1 C
03.06.2005 23:05 15,0 C 15,6 C 91 % 1009 hPa 0,0 l/m 0,0 m/s (0 Bft) O-SO 110 0,00 min 0 lux 13,5 C 15,0 C
03.06.2005 23:10 15,1 C 15,5 C 91 % 1009 hPa 0,0 l/m 0,0 m/s (0 Bft) O-SO 110 0,00 min 0 lux 13,6 C 15,1 C
03.06.2005 23:15 15,2 C 15,5 C 92 % 1009 hPa 0,0 l/m 0,0 m/s (0 Bft) SW67.5 230 0,00 min 0 lux 13,9 C 15,2 C
03.06.2005 23:20 15,2 C 15,5 C 92 % 1009 hPa 0,0 l/m 3,1 m/s (1 Bft) W45 275 0,00 min 0 lux 13,9 C 12,8 C
03.06.2005 23:25 15,2 C 15,5 C 92 % 1009 hPa 0,0 l/m 2,1 m/s (1 Bft) W45 260 0,00 min 0 lux 13,9 C 14,5 C
03.06.2005 23:30 15,3 C 15,6 C 91 % 1009 hPa 0,0 l/m 2,2 m/s (1 Bft) W-SW45 250 0,00 min 0 lux 13,8 C 14,5 C
03.06.2005 23:35 15,4 C 15,6 C 90 % 1009 hPa 0,0 l/m 2,2 m/s (1 Bft) W45 270 0,00 min 0 lux 13,8 C 14,6 C
03.06.2005 23:40 15,4 C 15,6 C 90 % 1009 hPa 0,0 l/m 2,2 m/s (1 Bft) W45 270 0,00 min 0 lux 13,8 C 14,6 C
03.06.2005 23:45 15,4 C 15,6 C 88 % 1009 hPa 0,0 l/m 3,3 m/s (1 Bft) W22.5 265 0,00 min 0 lux 13,4 C 12,8 C
03.06.2005 23:50 15,4 C 15,6 C 88 % 1009 hPa 0,0 l/m 2,1 m/s (1 Bft) W-SW22.5 250 0,00 min 0 lux 13,4 C 14,8 C
03.06.2005 23:55 15,3 C 15,5 C 88 % 1009 hPa 0,0 l/m 2,1 m/s (1 Bft) W45 270 0,00 min 0 lux 13,3 C 14,6 C
_ Min-Zeit 04:20 03:10 15:05 18:25 - 00:00 - - - - 20:20 20:25
Minimum _ 10,2 C 11,0 C 25 % 1007 hPa - 0,0 m/s (0 Bft) - - - - 3,1 C 8,9 C
_ Max-Zeit 15:40 14:35 05:00 00:10 20:20 20:10 - - 07:45 13:55 21:00 17:50
Maximum _ 27,8 C 33,8 C 95 % 1016 hPa 1,8 l/m 19,6 m/s
S (8 Bft)
- - 5,00 min 102 klux 13,9 C 27,1 C
Durchschnitt _ 18,7 C 20,3 C 65 % 1012 hPa #7,2 l/m 2,1 m/s (2 Bft) W-SW - #8:55 h 31,6 klux 10,2 C 17,9 C